Content
SEND FEEDBACK

Daily
Averages
Monthly
Summary
United States of America

ORANGE LAKE, NEW YORK


Home > North America > United States > New York
Elevation: 581 feet     Latitude: 41 47N     Longitude: 074 58W

WEATHER
 
SELECT A DAY
Number of Records: 148,086;   Date Range: 11/1/95 - 7/26/14
 
SHARE

PRINT THIS DATA

[ ← Previous Day ]
WEATHER ALMANAC - JANUARY 18, 2013
[ Next Day → ]
[ °C ]   °F
Weather ElementAverageHighLow
Temperature28.2 °F32 °F (1:51 am)25 °F (7:51 am)
Dewpoint8.4 °F19.9 °F (1:51 am)1 °F (2:51 pm)
Humidity44.2 %61 % (1:51 am)30 % (2:51 pm)
Barometer30.35 in30.48 in (5:51 pm)30.08 in (1:51 am)
Wind Speed6.4 mph11.5 mph (11:51 am)
Wind Gust23 mph (9:51 am)
Weather ElementAverage
Visibility10 mi
Wind DirectionESE (103.9 °)

Weather ElementTotal
Precipitation---
Heating Degree Days36.5 (Base 65)
Averaged from 23 records on January 18, 2013
WEATHER CONDITIONS BREAKOUT
WIND DIRECTION BREAKOUT
WEATHER BY HOUR - JANUARY 18, 2013
[ °C ]   °F
Local TimeTemperatureDewpointHumidityBarometerVisibilityWind DirectionWind SpeedGust SpeedPrecipitationEventsConditions
1:51 AM32.0 °F19.9 °F61 %30.08 in10.0 miVariable6.9 mph16.1 mphOvercast
2:51 AM30.9 °F16.0 °F54 %30.09 in10.0 miNorth (360°)6.9 mphOvercast
3:51 AM28.9 °F16.0 °F58 %30.09 in9.0 miVariable4.6 mphOvercast
4:51 AM28.9 °F12.9 °F51 %30.13 in10.0 miVariable5.8 mphMostly Cloudy
5:51 AM28.0 °F14.0 °F56 %30.19 in10.0 miNNE (30°)8.1 mphOvercast
6:51 AM27.0 °F12.9 °F56 %30.25 in10.0 miNNE (20°)6.9 mphOvercast
7:51 AM25.0 °F10.9 °F55 %30.30 in10.0 miNE (40°)8.1 mph19.6 mphOvercast
8:51 AM25.0 °F10.0 °F53 %30.35 in10.0 miNNW (330°)6.9 mphPartly Cloudy
9:51 AM26.1 °F10.0 °F51 %30.41 in10.0 miVariable3.5 mph23.0 mphMostly Cloudy
10:51 AM27.0 °F7.0 °F43 %30.42 in10.0 miWNW (300°)10.4 mph17.3 mphMostly Cloudy
11:51 AM27.0 °F5.0 °F39 %30.42 in10.0 miNW (310°)11.5 mph17.3 mphScattered Clouds
12:51 PM28.9 °F3.9 °F35 %30.41 in10.0 miWest (280°)11.5 mph17.3 mphPartly Cloudy
1:51 PM28.0 °F3.0 °F34 %30.43 in10.0 miVariable3.5 mph17.3 mphClear
2:51 PM28.9 °F1.0 °F30 %30.43 in10.0 miNorthClear
3:51 PM28.0 °F1.0 °F31 %30.43 in10.0 miCalmClear
4:51 PM28.0 °F1.9 °F33 %30.44 in10.0 miVariable5.8 mphClear
5:51 PM28.0 °F3.0 °F34 %30.48 in10.0 miVariable4.6 mphClear
6:51 PM28.0 °F3.9 °F36 %30.48 in10.0 miCalmClear
7:51 PM28.0 °F5.0 °F38 %30.47 in10.0 miSW (230°)8.1 mphClear
8:51 PM28.9 °F7.0 °F40 %30.45 in10.0 miNorthClear
9:51 PM28.9 °F8.1 °F41 %30.46 in10.0 miWSW (250°)10.4 mph17.3 mphClear
10:51 PM28.9 °F10.0 °F45 %30.43 in10.0 miWSW (240°)5.8 mphClear
11:51 PM30.0 °F10.0 °F43 %30.40 in10.0 miVariable4.6 mphClear
Hourly data recorded from KNYC, located miles away from Orange Lake, New York







STORIES FROM OUR PARTNERS